Location: Fort Worth, Tx
(32.7431°N, 97.3695°W)
Time: 15:57:49
(UTC-04:00)

ISS - Visible Passes

Search period start: 14 July 2020 00:00
Search period end: 24 July 2020 00:00
Orbit: 417 x 419 km, 51.6° (Epoch: 15 July)

Date Brightness Start Highest point End Pass type
(mag) Time Alt. Az. Time Alt. Az. Time Alt. Az.
14 Jul -1.0 00:22:21 10° W 00:24:53 20° NW 00:27:25 10° NNE visible
14 Jul -3.1 06:53:49 10° NW 06:57:08 61° NE 07:00:27 10° SE visible
14 Jul -1.9 23:33:48 10° WSW 23:36:50 32° NW 23:39:54 10° NNE visible
15 Jul -1.8 06:06:06 10° NNW 06:09:10 32° NE 06:12:14 10° ESE visible
15 Jul -3.2 22:45:33 10° SW 22:48:52 60° NW 22:52:11 10° NE visible
16 Jul -0.9 05:18:35 10° NNW 05:21:08 20° NE 05:23:40 10° E visible
16 Jul -3.1 06:54:54 10° WNW 06:57:57 33° SW 07:00:59 10° SSE visible
16 Jul -0.4 23:36:21 10° WNW 23:38:01 13° NNW 23:39:41 10° N visible
17 Jul -0.4 04:31:22 10° N 04:32:59 13° NNE 04:34:37 10° ENE visible
17 Jul -3.9 06:06:45 10° NW 06:10:05 68° SW 06:13:24 10° SE visible
17 Jul -0.8 22:47:19 10° W 22:49:53 20° NW 22:52:28 10° NNE visible
18 Jul -1.7 21:58:44 10° WSW 22:01:48 33° NW 22:04:54 10° NNE visible
20 Jul -0.5 22:01:08 10° WNW 22:02:53 13° NNW 22:04:39 10° N visible
